Tracking 29892 objects as of 21-Nov-2024
HD Live streaming from Space Station
objects crossing your sky now

STARLINK-6230

Track STARLINK-6230 now!
10-day predictions
STARLINK-6230 is classified as:


NORAD ID: 57228
Int'l Code: 2023-094L
Perigee: 565.4 km
Apogee: 567.1 km
Inclination: 43.0 °
Period: 95.8 minutes
Semi major axis: 6937 km
RCS: Unknown
Launch date: July 7, 2023
Source: United States (US)
Launch site: AIR FORCE WESTERN TEST RANGE (AFWTR)
Your satellite tracking list
Your tracking list is empty




NASA's NSSDC Master Catalog

Two Line Element Set (TLE):
1 57228U 23094L   24325.79445279  .00001375  00000-0  11686-3 0  9996
2 57228  43.0026  85.3555 0001251 274.3887  85.6813 15.02530995 75833
Source of the keplerian elements: AFSPC